Simultaneous Nadir Overpasses (SNOs) Predictions

Prediction of SNOs between AQUA and TERRA Satellite Orbit:

Table of predicted SNOs for the next 14.0 days since TLE Epoch: 2/27/2023
Index Date (AQUA) Time (AQUA) Lat,Lon (AQUA) SZA (AQUA ) Date (TERRA) Time (TERRA) Lat,Lon (TERRA) SZA (TERRA ) Distance(km) Time Diff (sec)
1 03/12/2023 23:53:08 73.27, 179.39 76.35 03/12/2023 23:54:14 73.24,-178.14 76.27 79.23 66
2 03/13/2023 00:42:33 -73.30, -13.03 103.64 03/13/2023 00:43:39 -73.22, -10.54 103.77 80.28 66
3 03/13/2023 01:31:55 73.09, 155.04 76.14 03/13/2023 01:33:03 73.03, 156.76 76.04 56.13 68
4 03/13/2023 02:21:19 -73.07, -37.27 103.90 03/13/2023 02:22:27 -73.06, -35.53 103.95 56.33 68



Historial Predications of SNOs between AQUA and TERRA
